Wind_Speed
23 22 21 20 18 18 18 18 18 17 15 14 14 12 12 12 12 11 11 11 9 8 9 8 7 6 6 6 6 5 3 3 4 4 5 4 5 6 8 8 8 9 10
26 22 23 21 18 18 17 16 16 15 14 13 13 12 13 13 12 11 10 9 8 8 7 7 7 6 5 4 4 5 4 4 5 5 7 5 5 7 6 7 3 9 10
27 24 22 21 18 17 16 16 16 14 13 12 11 13 13 13 12 11 10 9 8 6 5 5 5 3 3 3 3 3 3 4 4 3 5 10 7 7 7 8 9 8 9
29 26 21 21 19 17 16 16 15 13 12 12 12 13 13 13 11 9 8 6 5 5 4 3 3 3 3 3 3 3 3 2 3 6 4 3 6 7 9 9 7 6 8
27 26 23 21 19 17 17 15 15 13 13 12 12 12 11 10 9 7 6 5 5 5 5 5 5 5 5 5 5 5 5 4 4 5 6 9 13 11 8 8 8 7 8
31 27 26 22 19 17 17 14 14 13 12 11 11 11 9 8 6 6 5 6 7 7 7 7 7 8 8 8 8 7 7 7 7 5 9 3 6 2 6 8 8 6 9
31 27 24 22 20 19 16 14 13 12 11 11 10 9 7 6 5 6 6 7 7 7 7 8 9 9 10 10 9 8 8 8 8 9 12 8 6 6 8 10 11 10 9
29 26 23 20 22 19 16 15 13 11 10 10 8 7 6 6 6 6 7 6 7 7 8 9 10 11 11 12 11 10 9 8 8 8 5 16 9 11 9 10 11 10 10
28 25 22 19 17 17 16 14 12 11 10 9 8 7 6 6 7 6 7 6 5 7 8 9 10 11 11 12 12 12 11 10 9 12 8 13 14 15 10 9 11 11 11
30 24 22 21 17 15 13 14 12 11 9 8 7 6 6 8 6 4 7 8 7 9 10 10 12 11 12 13 13 13 12 10 11 8 9 12 16 16 10 10 11 11 13
29 28 25 21 19 17 16 14 12 10 9 8 7 6 9 9 8 9 7 10 8 8 8 11 10 10 9 11 11 12 13 13 9 10 7 12 14 10 10 11 12 12 12
28 27 27 24 20 19 20 17 12 11 11 9 10 8 7 10 9 11 11 4 8 5 10 12 7 8 12 10 15 15 18 15 16 13 15 12 9 6 8 10 12 13 13
20 19 23 23 23 17 17 12 14 23 16 12 12 10 9 8 10 13 13 14 7 12 11 8 11 16 9 18 12 8 19 18 21 15 18 11 5 7 7 9 10 10 11
21 21 20 18 21 20 14 14 16 14 14 16 12 12 10 10 12 9 3 7 6 11 14 10 7 7 15 15 17 14 14 16 9 23 18 8 4 5 7 8 8 8 12
23 19 20 22 21 14 17 13 10 10 8 11 14 9 13 12 13 8 7 8 8 13 14 5 5 8 9 11 17 15 8 11 13 11 12 4 5 7 6 7 8 7 10
24 21 19 22 21 18 11 8 10 7 9 11 13 18 12 9 7 10 10 11 11 12 13 2 4 6 11 12 10 15 12 15 14 14 8 12 10 9 9 9 8 6 6
25 22 20 23 19 21 14 14 10 12 12 12 13 18 12 9 12 11 14 11 14 17 8 6 8 7 14 11 11 12 10 4 12 19 15 14 15 11 10 9 8 7 6
23 22 22 21 24 21 19 16 15 14 15 15 17 17 15 13 12 13 15 13 14 7 9 8 3 7 12 14 13 9 10 8 4 15 19 14 14 12 11 9 7 5 5
19 26 20 22 21 24 20 18 17 18 16 14 16 16 20 15 12 16 14 15 8 14 13 2 2 7 16 18 6 16 8 13 6 16 11 18 13 14 10 11 7 4 2
23 25 23 19 19 24 21 18 17 16 17 14 15 14 21 13 9 14 15 13 8 14 2 8 2 11 16 13 12 8 19 24 8 11 16 10 18 15 13 10 9 6 4
24 25 26 20 22 21 20 19 18 18 18 19 19 13 12 10 10 10 14 8 9 12 1 9 7 19 14 13 5 18 21 16 20 30 11 12 20 18 14 12 9 9 9
27 25 27 24 23 22 21 21 20 19 20 20 18 17 15 13 12 12 12 11 12 18 10 5 13 12 15 17 3 15 1 11 7 15 26 40 22 17 16 18 14 12 11
28 30 29 27 26 27 23 22 19 18 20 16 17 15 17 17 17 18 15 8 7 12 4 4 11 14 7 7 9 3 3 5 1 6 23 26 6 11 21 20 19 16 11
28 31 31 30 28 29 30 21 23 18 16 17 14 17 17 19 19 20 16 13 11 10 10 7 19 11 7 6 3 2 3 16 3 3 7 2 11 14 10 17 23 19 17
29 32 32 33 30 28 30 28 21 22 18 20 17 21 20 16 20 20 19 17 14 14 10 13 10 7 12 9 6 4 8 17 27 5 5 13 19 18 19 14 16 20 22
29 30 33 35 34 31 31 33 29 20 26 19 20 14 13 16 22 26 23 19 13 13 16 13 11 8 15 13 11 7 9 7 1 6 4 9 13 25 25 19 17 15 21
Wind_Direction
141 143 138 136 127 122 119 118 113 112 106 102 97 95 94 98 98 103 103 102 101 101 97 92 89 84 76 65 72 71 86 112 104 98 98 97 109 104 113 103 91 128 131
141 143 141 139 132 126 125 122 115 112 108 104 103 100 106 110 110 112 111 110 107 105 105 106 100 95 103 86 81 88 87 116 109 112 129 124 141 131 130 126 106 139 136
140 141 141 141 139 133 129 120 114 115 115 109 111 109 109 108 109 112 113 114 114 111 108 111 116 124 124 124 106 105 115 128 117 146 169 164 152 152 153 138 145 141 134
140 142 145 144 144 139 132 120 118 117 119 118 115 116 117 112 114 114 115 125 133 143 150 153 158 167 177 185 180 169 175 173 144 205 240 128 133 194 163 159 145 134 137
143 147 152 149 148 139 131 125 127 128 126 123 122 122 124 128 134 137 147 164 179 193 201 206 208 213 214 217 213 208 215 214 206 227 250 127 176 201 169 165 148 150 139
148 144 153 153 145 141 136 143 147 147 142 136 134 136 141 147 151 165 185 199 202 211 217 221 221 220 220 221 224 223 221 222 223 247 270 205 189 176 178 171 150 149 164
133 142 147 153 150 147 150 146 147 145 145 146 145 151 161 170 182 194 205 213 217 220 224 231 235 233 228 225 225 225 226 225 226 240 258 212 288 202 186 169 161 185 175
135 142 145 156 155 155 156 157 156 158 161 159 158 175 189 196 198 203 211 219 225 230 230 232 236 236 233 228 224 225 223 220 235 262 268 192 218 208 190 172 179 187 190
140 143 149 154 159 160 161 165 165 167 171 170 179 198 203 203 204 207 209 216 233 238 239 242 241 239 239 231 224 221 219 218 217 224 268 223 196 196 191 180 183 191 198
142 147 156 162 166 168 171 175 176 179 185 189 195 212 207 200 196 206 238 233 246 246 242 239 245 243 243 239 230 225 220 218 225 221 216 190 189 195 195 197 194 202 210
146 155 161 168 176 182 181 186 186 192 198 199 192 191 210 230 230 228 224 240 259 250 252 244 233 234 242 241 243 239 231 213 205 217 215 194 191 206 208 206 207 209 221
162 160 163 167 174 186 189 188 185 203 205 203 210 230 236 244 217 228 234 253 273 231 228 233 238 247 234 266 248 238 236 218 227 200 204 200 199 210 213 208 214 221 228
183 171 165 172 168 177 171 172 189 206 209 186 190 219 232 209 231 255 229 232 285 245 251 240 185 231 230 207 213 218 221 218 221 205 188 180 195 216 204 202 209 219 218
185 180 178 180 168 181 192 177 200 203 186 192 198 198 220 237 231 259 192 247 221 272 246 203 246 202 244 246 219 217 231 245 249 167 148 146 141 198 207 199 199 205 207
178 194 189 173 170 191 175 191 228 197 182 197 169 200 222 234 223 254 266 275 265 266 293 197 274 248 237 225 211 207 211 237 107 135 130 173 140 148 167 181 192 197 200
175 188 185 160 175 197 187 198 207 212 201 219 204 206 197 231 248 261 260 253 265 269 260 245 294 287 290 234 226 207 221 218 202 209 224 168 158 152 147 155 165 173 198
168 188 192 168 174 190 196 211 204 220 221 207 235 185 188 224 249 262 264 253 259 272 274 258 248 268 305 286 232 203 249 58 184 169 172 171 168 167 156 150 151 162 181
177 187 194 194 180 183 196 200 207 224 227 214 224 206 210 216 236 246 262 260 264 282 258 246 58 277 297 278 296 204 246 254 278 160 182 178 172 170 170 162 151 154 165
188 175 191 188 187 182 194 201 213 219 232 238 231 228 195 205 217 246 254 251 268 249 276 200 196 215 283 276 276 224 194 192 216 213 176 185 176 187 182 173 165 153 138
179 174 183 191 197 183 186 202 209 230 212 241 249 257 184 209 248 231 263 236 235 265 284 80 219 277 278 294 44 53 341 12 354 238 151 175 167 177 188 175 182 183 188
178 176 181 196 189 179 179 192 219 214 217 223 235 229 193 222 226 246 265 194 244 332 289 304 238 260 267 280 132 99 335 302 318 346 308 209 169 175 186 195 195 207 201
178 179 179 192 190 187 192 195 213 218 222 221 228 234 215 218 234 259 240 256 256 236 244 261 282 279 289 330 60 96 77 329 273 352 282 316 194 175 198 194 199 204 208
182 178 179 188 191 193 197 206 216 224 238 236 227 226 213 226 231 243 238 247 242 219 195 149 265 262 268 359 340 161 140 228 5 130 262 298 232 184 205 197 208 187 185
189 180 181 186 192 195 202 206 212 219 238 234 239 228 234 215 229 238 244 240 255 263 170 198 238 243 257 236 233 9 89 164 163 295 337 202 267 218 201 202 193 194 193
195 184 184 186 194 199 203 213 215 217 226 241 231 234 228 232 219 238 244 227 227 243 207 187 190 244 276 280 296 241 163 215 177 168 163 241 246 242 209 211 220 207 200
196 192 188 186 193 200 202 211 219 217 223 241 239 232 214 219 232 228 233 216 223 241 251 261 260 243 260 287 299 310 292 268 277 203 223 189 231 195 206 200 212 198 205
Height
813 816 819 821 823 824 825 827 827 828 830 831 831 832 833 834 835 837 838 839 841 841 842 843 843 843 842 841 841 842 842 843 844 844 844 844 845 847 847 849 850 848 849
810 815 818 821 824 825 827 828 828 830 831 832 833 834 834 835 837 839 840 840 841 841 842 843 843 843 842 841 842 842 842 843 844 844 841 840 842 844 848 848 850 849 849
809 815 819 821 824 826 828 829 830 831 833 834 835 835 836 837 838 840 841 841 841 841 842 842 843 842 842 842 842 843 843 843 845 843 840 836 841 843 847 848 850 850 850
807 814 819 822 825 827 828 830 832 833 834 835 836 837 837 838 840 841 841 841 840 840 840 841 841 841 840 840 841 842 842 845 847 840 844 844 848 851 847 848 849 851 851
808 813 819 823 825 826 829 831 833 835 835 836 837 838 838 839 839 840 840 839 839 838 838 839 839 838 838 838 839 841 842 844 845 843 843 853 846 855 847 848 849 851 852
805 813 818 822 825 828 830 832 834 834 835 837 837 838 838 838 839 839 838 837 837 837 837 837 837 837 836 836 835 837 839 843 845 844 843 846 852 848 847 849 850 851 852
806 813 818 822 825 829 830 832 834 835 836 837 838 838 837 837 837 837 837 837 838 839 840 840 840 840 838 836 835 834 835 839 842 845 843 844 844 847 850 849 850 849 851
807 815 819 823 825 828 831 832 834 835 836 837 838 838 837 836 836 836 837 837 839 840 840 840 841 841 839 837 835 834 834 835 837 839 842 839 842 847 847 846 847 848 849
807 815 820 825 827 829 831 832 834 835 835 836 837 836 836 835 835 836 836 838 839 839 839 840 838 838 839 837 834 832 832 833 833 834 836 839 840 843 843 844 845 846 848
805 812 820 824 827 830 832 832 833 834 835 835 835 835 834 834 835 836 836 838 836 836 836 835 835 837 837 838 835 833 830 831 831 831 834 836 838 840 840 841 843 844 846
803 810 815 821 825 828 830 831 832 833 833 833 833 833 832 832 834 832 834 834 835 832 832 829 830 833 835 836 836 836 833 827 827 830 831 832 835 837 837 838 840 842 844
801 805 810 815 821 824 826 828 829 830 830 831 831 831 831 830 831 831 832 832 830 827 823 822 827 829 827 831 833 833 831 827 826 828 829 831 833 833 834 835 837 839 842
799 802 806 810 815 820 822 824 826 826 826 828 831 830 830 828 829 828 830 830 829 825 819 828 818 823 826 828 829 830 826 823 824 823 823 826 828 831 832 834 836 837 839
797 800 803 807 811 816 819 821 822 823 824 825 826 827 827 826 826 826 828 827 827 818 822 828 820 824 822 832 832 831 826 824 822 821 820 824 826 829 831 832 835 836 837
794 798 801 805 809 813 815 818 819 820 822 823 824 825 825 824 824 824 825 825 824 821 820 821 820 826 827 827 829 827 823 820 825 827 823 822 825 828 829 831 832 834 836
790 795 799 803 807 812 814 816 818 819 820 821 821 821 821 821 821 821 822 822 823 824 824 823 822 823 822 823 825 824 820 821 821 819 825 823 825 828 828 829 831 833 835
785 792 796 800 805 810 814 816 818 819 819 820 818 818 819 820 820 819 818 819 821 824 826 825 823 821 819 821 818 817 816 819 818 819 823 825 827 829 828 828 829 830 832
782 788 794 797 801 807 811 814 816 817 817 817 817 815 815 817 818 817 816 815 817 820 822 824 821 820 817 815 817 816 816 815 816 816 820 823 825 829 830 829 828 828 830
779 783 790 795 798 802 808 811 813 814 813 813 813 812 811 814 816 816 815 815 815 814 813 815 814 817 818 816 817 818 818 821 815 813 816 819 822 826 827 827 826 827 828
775 781 786 791 796 799 804 808 810 810 811 811 809 808 809 811 812 814 814 814 817 815 813 810 810 813 815 816 818 817 823 826 819 798 806 812 816 820 823 825 824 823 825
772 778 782 788 792 797 800 805 806 807 807 807 807 806 807 809 811 812 814 817 815 813 815 811 810 814 814 816 815 825 827 820 821 813 801 812 809 811 817 819 819 820 821
767 774 779 785 788 792 797 800 803 803 803 803 803 803 803 806 808 810 812 815 810 816 813 814 813 813 815 815 814 822 834 823 824 819 808 786 808 801 810 814 816 816 817
761 767 774 780 784 788 793 796 799 799 799 798 799 799 800 802 805 807 808 808 811 812 807 808 807 809 815 814 812 816 829 830 826 828 830 811 794 800 809 811 813 812 813
755 762 769 776 780 784 788 791 794 795 795 795 795 796 798 798 800 802 803 801 802 802 804 809 807 805 811 815 813 809 810 811 819 821 813 800 798 803 808 811 813 810 810
750 757 764 771 777 780 783 786 789 790 792 793 793 792 793 795 796 799 800 799 800 802 806 807 803 805 805 806 808 806 809 808 807 807 815 805 802 804 807 809 809 808 808
742 750 757 763 770 776 779 781 784 786 788 789 789 788 790 792 793 792 795 799 805 807 808 805 805 802 802 800 802 806 804 800 800 799 798 797 797 796 802 804 806 807 809